Year,Month,Day,Hour,Minute,Value (Times are PST for temperature in C)
2020,08,09,10,44,18.60
2020,08,09,10,45,18.60
2020,08,09,10,46,18.60
2020,08,09,10,47,18.60
2020,08,09,10,48,18.60
2020,08,09,10,49,18.60
2020,08,09,10,50,18.50
2020,08,09,10,51,18.50
2020,08,09,10,52,18.40
2020,08,09,10,53,18.40
2020,08,09,10,54,18.40
2020,08,09,10,55,18.40
2020,08,09,10,56,18.50
2020,08,09,10,57,18.50
2020,08,09,10,58,18.50
2020,08,09,10,59,18.50
2020,08,09,11,00,18.50
2020,08,09,11,01,18.60
2020,08,09,11,02,18.60
2020,08,09,11,03,18.60
2020,08,09,11,04,18.60
2020,08,09,11,05,18.50
2020,08,09,11,06,18.50
2020,08,09,11,07,18.60
2020,08,09,11,08,18.60
2020,08,09,11,09,18.60
2020,08,09,11,10,18.70
2020,08,09,11,11,18.70
2020,08,09,11,12,18.80
2020,08,09,11,13,18.80
2020,08,09,11,14,18.80
2020,08,09,11,15,18.90
2020,08,09,11,16,18.90
2020,08,09,11,17,19.00
2020,08,09,11,18,19.10
2020,08,09,11,19,18.90
2020,08,09,11,20,18.90
2020,08,09,11,21,18.90
2020,08,09,11,22,18.90
2020,08,09,11,23,19.00
2020,08,09,11,24,19.10
2020,08,09,11,25,19.10
2020,08,09,11,26,19.10
2020,08,09,11,27,19.10
2020,08,09,11,28,19.00
2020,08,09,11,29,18.90
2020,08,09,11,30,18.80
2020,08,09,11,31,18.80
2020,08,09,11,32,18.80
2020,08,09,11,33,18.80
2020,08,09,11,34,18.90
2020,08,09,11,35,18.90
2020,08,09,11,36,19.00
2020,08,09,11,37,19.10
2020,08,09,11,38,19.20
2020,08,09,11,39,19.20
2020,08,09,11,40,19.20
2020,08,09,11,41,19.30
2020,08,09,11,42,19.40
2020,08,09,11,43,19.40
2020,08,09,11,44,19.50
2020,08,09,11,45,19.60
2020,08,09,11,46,19.70
2020,08,09,11,47,19.80
2020,08,09,11,48,19.80
2020,08,09,11,49,19.70
2020,08,09,11,50,19.60
2020,08,09,11,51,19.60
2020,08,09,11,52,19.60
2020,08,09,11,53,19.70
2020,08,09,11,54,19.80
2020,08,09,11,55,19.70
2020,08,09,11,56,19.60
2020,08,09,11,57,19.60
2020,08,09,11,58,19.50
2020,08,09,11,59,19.50
2020,08,09,12,00,19.50
2020,08,09,12,01,19.50
2020,08,09,12,02,19.50
2020,08,09,12,03,19.50
2020,08,09,12,04,19.50
2020,08,09,12,05,19.60
2020,08,09,12,06,19.70
2020,08,09,12,07,19.70
2020,08,09,12,08,19.70
2020,08,09,12,09,19.90
2020,08,09,12,10,19.90
2020,08,09,12,11,19.90
2020,08,09,12,12,19.90
2020,08,09,12,13,19.90
2020,08,09,12,14,20.00
2020,08,09,12,15,20.10
2020,08,09,12,16,20.00
2020,08,09,12,17,19.90
2020,08,09,12,18,19.80
2020,08,09,12,19,19.70
2020,08,09,12,20,19.50
2020,08,09,12,21,19.40
2020,08,09,12,22,19.40
2020,08,09,12,23,19.30
2020,08,09,12,24,19.30
2020,08,09,12,25,19.40
2020,08,09,12,26,19.50
2020,08,09,12,27,19.60
2020,08,09,12,28,19.70
2020,08,09,12,29,19.80
2020,08,09,12,30,19.80
2020,08,09,12,31,19.80
2020,08,09,12,32,19.70
2020,08,09,12,33,19.70
2020,08,09,12,34,19.70
2020,08,09,12,35,19.70
2020,08,09,12,36,19.70
2020,08,09,12,37,19.80
2020,08,09,12,38,19.90
2020,08,09,12,39,19.80
2020,08,09,12,40,19.80
2020,08,09,12,41,19.80
2020,08,09,12,42,19.70
2020,08,09,12,43,19.60
2020,08,09,12,44,19.50
2020,08,09,12,45,19.40
2020,08,09,12,46,19.30
2020,08,09,12,47,19.20
2020,08,09,12,48,19.10
2020,08,09,12,49,19.10
2020,08,09,12,50,19.20
2020,08,09,12,51,19.30
2020,08,09,12,52,19.30
2020,08,09,12,53,19.30
2020,08,09,12,54,19.40
2020,08,09,12,55,19.40
2020,08,09,12,56,19.50
2020,08,09,12,57,19.60
2020,08,09,12,58,19.80
2020,08,09,12,59,20.00
2020,08,09,13,00,20.10
2020,08,09,13,01,20.20
2020,08,09,13,02,20.30
2020,08,09,13,03,20.40
2020,08,09,13,04,20.50
2020,08,09,13,05,20.50
2020,08,09,13,06,20.50
2020,08,09,13,07,20.50
2020,08,09,13,08,20.50
2020,08,09,13,09,20.40
2020,08,09,13,10,20.40
2020,08,09,13,11,20.40
2020,08,09,13,12,20.50
2020,08,09,13,13,20.50
2020,08,09,13,14,20.60
2020,08,09,13,15,20.60
2020,08,09,13,16,20.60
2020,08,09,13,17,20.60
2020,08,09,13,18,20.50
2020,08,09,13,19,20.40
2020,08,09,13,20,20.30
2020,08,09,13,21,20.20
2020,08,09,13,22,20.20
2020,08,09,13,23,20.10
2020,08,09,13,24,20.00
2020,08,09,13,25,19.90
2020,08,09,13,26,19.90
2020,08,09,13,27,19.80
2020,08,09,13,28,19.70
2020,08,09,13,29,19.60
2020,08,09,13,30,19.40
2020,08,09,13,31,19.30
2020,08,09,13,32,19.10
2020,08,09,13,33,19.10
2020,08,09,13,34,19.10
2020,08,09,13,35,19.10
2020,08,09,13,36,19.10
2020,08,09,13,37,19.10
2020,08,09,13,38,19.10
2020,08,09,13,39,19.10
2020,08,09,13,40,19.20
2020,08,09,13,41,19.30
2020,08,09,13,42,19.40
2020,08,09,13,43,19.50
2020,08,09,13,44,19.50
2020,08,09,13,45,19.60
2020,08,09,13,46,19.70
2020,08,09,13,47,19.80
2020,08,09,13,48,19.80
2020,08,09,13,49,19.80
2020,08,09,13,50,19.80
2020,08,09,13,51,19.80
2020,08,09,13,52,19.80
2020,08,09,13,53,19.80
2020,08,09,13,54,19.80
2020,08,09,13,55,19.80
2020,08,09,13,56,19.90
2020,08,09,13,57,19.90
2020,08,09,13,58,19.90
2020,08,09,13,59,19.90
2020,08,09,14,00,20.00
2020,08,09,14,01,20.10
2020,08,09,14,02,20.20
2020,08,09,14,03,20.20
2020,08,09,14,04,20.10
2020,08,09,14,05,20.00
2020,08,09,14,06,19.90
2020,08,09,14,07,19.90
2020,08,09,14,08,20.00
2020,08,09,14,09,20.10
2020,08,09,14,10,20.10
2020,08,09,14,11,20.20
2020,08,09,14,12,20.20
2020,08,09,14,13,20.20
2020,08,09,14,14,20.20
2020,08,09,14,15,20.30
2020,08,09,14,16,20.40
2020,08,09,14,17,20.50
2020,08,09,14,18,20.50
2020,08,09,14,19,20.50
2020,08,09,14,20,20.40
2020,08,09,14,21,20.40
2020,08,09,14,22,20.40
2020,08,09,14,23,20.20
2020,08,09,14,24,20.20
2020,08,09,14,25,20.20
2020,08,09,14,26,20.20
2020,08,09,14,27,20.20
2020,08,09,14,28,20.20
2020,08,09,14,29,20.20
2020,08,09,14,30,20.20
2020,08,09,14,31,20.10
2020,08,09,14,32,20.10
2020,08,09,14,33,20.10
2020,08,09,14,34,20.10
2020,08,09,14,35,20.20
2020,08,09,14,36,20.20
2020,08,09,14,37,20.10
2020,08,09,14,38,20.10
2020,08,09,14,39,20.00
2020,08,09,14,40,20.10
2020,08,09,14,41,20.10
2020,08,09,14,42,20.20
2020,08,09,14,43,20.20
2020,08,09,14,44,20.30
2020,08,09,14,45,20.30
2020,08,09,14,46,20.40
2020,08,09,14,47,20.40
2020,08,09,14,48,20.40
2020,08,09,14,49,20.40
2020,08,09,14,50,20.40
2020,08,09,14,51,20.40
2020,08,09,14,52,20.40
2020,08,09,14,53,20.40
2020,08,09,14,54,20.40
2020,08,09,14,55,20.40
2020,08,09,14,56,20.40
2020,08,09,14,57,20.40
2020,08,09,14,58,20.40
2020,08,09,14,59,20.40
2020,08,09,15,00,20.50
2020,08,09,15,01,20.50
2020,08,09,15,02,20.50
2020,08,09,15,03,20.60
2020,08,09,15,04,20.50
2020,08,09,15,05,20.60
2020,08,09,15,06,20.70
2020,08,09,15,07,20.80
2020,08,09,15,08,20.80
2020,08,09,15,09,20.80
2020,08,09,15,10,20.90
2020,08,09,15,11,20.90
2020,08,09,15,12,20.90
2020,08,09,15,13,20.90
2020,08,09,15,14,20.90
2020,08,09,15,15,21.00
2020,08,09,15,16,21.00
2020,08,09,15,17,21.10
2020,08,09,15,18,21.10
2020,08,09,15,19,21.20
2020,08,09,15,20,21.20
2020,08,09,15,21,21.30
2020,08,09,15,22,21.30
2020,08,09,15,23,21.40
2020,08,09,15,24,21.40
2020,08,09,15,25,21.50
2020,08,09,15,26,21.60
2020,08,09,15,27,21.60
2020,08,09,15,28,21.60
2020,08,09,15,29,21.60
2020,08,09,15,30,21.60
2020,08,09,15,31,21.60
2020,08,09,15,32,21.60
2020,08,09,15,33,21.60
2020,08,09,15,34,21.60
2020,08,09,15,35,21.60
2020,08,09,15,36,21.70
2020,08,09,15,37,21.70
2020,08,09,15,38,21.80
2020,08,09,15,39,21.80
2020,08,09,15,40,21.80
2020,08,09,15,41,21.80
2020,08,09,15,42,21.90
2020,08,09,15,43,21.90
2020,08,09,15,44,21.90
2020,08,09,15,45,21.90
2020,08,09,15,46,21.80
2020,08,09,15,47,21.80
2020,08,09,15,48,21.80
2020,08,09,15,49,21.70
2020,08,09,15,50,21.60
2020,08,09,15,51,21.60
2020,08,09,15,52,21.60
2020,08,09,15,53,21.60
2020,08,09,15,54,21.50
2020,08,09,15,55,21.40
2020,08,09,15,56,21.30
2020,08,09,15,57,21.30
2020,08,09,15,58,21.30
2020,08,09,15,59,21.30
2020,08,09,16,00,21.30
2020,08,09,16,01,21.30
2020,08,09,16,02,21.30
2020,08,09,16,03,21.30
2020,08,09,16,04,21.30
2020,08,09,16,05,21.30
2020,08,09,16,06,21.30
2020,08,09,16,07,21.30
2020,08,09,16,08,21.20
2020,08,09,16,09,21.10
2020,08,09,16,10,21.00
2020,08,09,16,11,20.90
2020,08,09,16,12,20.80
2020,08,09,16,13,20.70
2020,08,09,16,14,20.60
2020,08,09,16,15,20.50
2020,08,09,16,16,20.40
2020,08,09,16,17,20.30
2020,08,09,16,18,20.30
2020,08,09,16,19,20.30
2020,08,09,16,20,20.40
2020,08,09,16,21,20.50
2020,08,09,16,22,20.60
2020,08,09,16,23,20.70
2020,08,09,16,24,20.90
2020,08,09,16,25,21.00
2020,08,09,16,26,21.10
2020,08,09,16,27,21.20
2020,08,09,16,28,21.20
2020,08,09,16,29,21.20
2020,08,09,16,30,21.20
2020,08,09,16,31,21.10
2020,08,09,16,32,21.00
2020,08,09,16,33,20.90
2020,08,09,16,34,20.80
2020,08,09,16,35,20.80
2020,08,09,16,36,20.90
2020,08,09,16,37,20.90
2020,08,09,16,38,21.00
2020,08,09,16,39,21.00
2020,08,09,16,40,21.00
2020,08,09,16,41,20.90
2020,08,09,16,42,20.90
2020,08,09,16,43,21.00
2020,08,09,16,44,21.00
2020,08,09,16,45,21.00
2020,08,09,16,46,21.00
2020,08,09,16,47,21.00
2020,08,09,16,48,21.00
2020,08,09,16,49,21.10
2020,08,09,16,50,21.10
2020,08,09,16,51,21.20
2020,08,09,16,52,21.20
2020,08,09,16,53,21.30
2020,08,09,16,54,21.30
2020,08,09,16,55,21.30
2020,08,09,16,56,21.40
2020,08,09,16,57,21.50
2020,08,09,16,58,21.60
2020,08,09,16,59,21.70
2020,08,09,17,00,21.80
2020,08,09,17,01,21.90
2020,08,09,17,02,22.00
2020,08,09,17,03,22.00
2020,08,09,17,04,22.00
2020,08,09,17,05,22.00
2020,08,09,17,06,22.00
2020,08,09,17,07,22.00
2020,08,09,17,08,21.90
2020,08,09,17,09,21.90
2020,08,09,17,10,21.80
2020,08,09,17,11,21.70
2020,08,09,17,12,21.70
2020,08,09,17,13,21.70
2020,08,09,17,14,21.70
2020,08,09,17,15,21.70
2020,08,09,17,16,21.70
2020,08,09,17,17,21.70
2020,08,09,17,18,21.70
2020,08,09,17,19,21.80
2020,08,09,17,20,21.80
2020,08,09,17,21,21.80
2020,08,09,17,22,21.80
2020,08,09,17,23,21.80
2020,08,09,17,24,21.80
2020,08,09,17,25,21.90
2020,08,09,17,26,21.90
2020,08,09,17,27,21.90
2020,08,09,17,28,21.90
2020,08,09,17,29,22.00
2020,08,09,17,30,22.00
2020,08,09,17,31,22.00
2020,08,09,17,32,22.00
2020,08,09,17,33,22.00
2020,08,09,17,34,22.00
2020,08,09,17,35,22.00
2020,08,09,17,36,22.00
2020,08,09,17,37,22.00
2020,08,09,17,38,22.00
2020,08,09,17,39,22.00
2020,08,09,17,40,22.00
2020,08,09,17,41,22.00
2020,08,09,17,42,22.00
2020,08,09,17,43,22.10
2020,08,09,17,44,22.10
2020,08,09,17,45,22.10
2020,08,09,17,46,22.10
2020,08,09,17,47,22.10
2020,08,09,17,48,22.10
2020,08,09,17,49,22.10
2020,08,09,17,50,22.10
2020,08,09,17,51,22.10
2020,08,09,17,52,22.20
2020,08,09,17,53,22.20
2020,08,09,17,54,22.30
2020,08,09,17,55,22.30
2020,08,09,17,56,22.30
2020,08,09,17,57,22.20
2020,08,09,17,58,22.20
2020,08,09,17,59,22.20
2020,08,09,18,00,22.10
2020,08,09,18,01,22.10
2020,08,09,18,02,22.00
2020,08,09,18,03,21.90
2020,08,09,18,04,21.80
2020,08,09,18,05,21.80
2020,08,09,18,06,21.80
2020,08,09,18,07,21.80
2020,08,09,18,08,21.80
2020,08,09,18,09,21.80
2020,08,09,18,10,21.70
2020,08,09,18,11,21.70
2020,08,09,18,12,21.60
2020,08,09,18,13,21.40
2020,08,09,18,14,21.30
2020,08,09,18,15,21.20
2020,08,09,18,16,21.00
2020,08,09,18,17,20.80
2020,08,09,18,18,20.60
2020,08,09,18,19,20.40
2020,08,09,18,20,20.20
2020,08,09,18,21,20.20
2020,08,09,18,22,20.20
2020,08,09,18,23,20.20
2020,08,09,18,24,20.20
2020,08,09,18,25,20.20
2020,08,09,18,26,20.20
2020,08,09,18,27,20.20
2020,08,09,18,28,20.20
2020,08,09,18,29,20.10
2020,08,09,18,30,20.00
2020,08,09,18,31,19.90
2020,08,09,18,32,19.90
2020,08,09,18,33,19.90
2020,08,09,18,34,19.90
2020,08,09,18,35,19.90
2020,08,09,18,36,19.90
2020,08,09,18,37,19.90
2020,08,09,18,38,19.90
2020,08,09,18,39,19.90
2020,08,09,18,40,19.90
2020,08,09,18,41,19.90
2020,08,09,18,42,19.90
2020,08,09,18,43,19.90
2020,08,09,18,44,20.00
2020,08,09,18,45,20.10
2020,08,09,18,46,20.20
2020,08,09,18,47,20.20
2020,08,09,18,48,20.20
2020,08,09,18,49,20.20
2020,08,09,18,50,20.30
2020,08,09,18,51,20.30
2020,08,09,18,52,20.20
2020,08,09,18,53,20.20
2020,08,09,18,54,20.20
2020,08,09,18,55,20.20
2020,08,09,18,56,20.10
2020,08,09,18,57,20.00
2020,08,09,18,58,19.90
2020,08,09,18,59,19.90
2020,08,09,19,00,19.90
2020,08,09,19,01,19.90
2020,08,09,19,02,19.90
2020,08,09,19,03,19.80
2020,08,09,19,04,19.70
2020,08,09,19,05,19.70
2020,08,09,19,06,19.70
2020,08,09,19,07,19.70
2020,08,09,19,08,19.70
2020,08,09,19,09,19.70
2020,08,09,19,10,19.70
2020,08,09,19,11,19.70
2020,08,09,19,12,19.70
2020,08,09,19,13,19.70
2020,08,09,19,14,19.70
2020,08,09,19,15,19.70
2020,08,09,19,16,19.70
2020,08,09,19,17,19.70
2020,08,09,19,18,19.70
2020,08,09,19,19,19.70
2020,08,09,19,20,19.70
2020,08,09,19,21,19.70
2020,08,09,19,22,19.70
2020,08,09,19,23,19.80
2020,08,09,19,24,19.80
2020,08,09,19,25,19.80
2020,08,09,19,26,19.80
2020,08,09,19,27,19.80
2020,08,09,19,28,19.80
2020,08,09,19,29,19.80
2020,08,09,19,30,19.80
2020,08,09,19,31,19.80
2020,08,09,19,32,19.80
2020,08,09,19,33,19.80
2020,08,09,19,34,19.80
2020,08,09,19,35,19.80
2020,08,09,19,36,19.80
2020,08,09,19,37,19.80
2020,08,09,19,38,19.70
2020,08,09,19,39,19.70
2020,08,09,19,40,19.70
2020,08,09,19,41,19.70
2020,08,09,19,42,19.70
2020,08,09,19,43,19.70
2020,08,09,19,44,19.70
2020,08,09,19,45,19.60
2020,08,09,19,46,19.60
2020,08,09,19,47,19.50
2020,08,09,19,48,19.50
2020,08,09,19,49,19.50
2020,08,09,19,50,19.50
2020,08,09,19,51,19.50
2020,08,09,19,52,19.40
2020,08,09,19,53,19.40
2020,08,09,19,54,19.40
2020,08,09,19,55,19.40
2020,08,09,19,56,19.40
2020,08,09,19,57,19.40
2020,08,09,19,58,19.40
2020,08,09,19,59,19.40
2020,08,09,20,00,19.40
2020,08,09,20,01,19.30
2020,08,09,20,02,19.30
2020,08,09,20,03,19.30
2020,08,09,20,04,19.30
2020,08,09,20,05,19.20
2020,08,09,20,06,19.20
2020,08,09,20,07,19.10
2020,08,09,20,08,19.10
2020,08,09,20,09,19.10
2020,08,09,20,10,19.00
2020,08,09,20,11,18.90
2020,08,09,20,12,18.90
2020,08,09,20,13,18.90
2020,08,09,20,14,18.90
2020,08,09,20,15,18.90
2020,08,09,20,16,18.90
2020,08,09,20,17,18.90
2020,08,09,20,18,18.90
2020,08,09,20,19,18.90
2020,08,09,20,20,18.80
2020,08,09,20,21,18.80
2020,08,09,20,22,18.80
2020,08,09,20,23,18.80
2020,08,09,20,24,18.80
2020,08,09,20,25,18.80
2020,08,09,20,26,18.80
2020,08,09,20,27,18.80
2020,08,09,20,28,18.80
2020,08,09,20,29,18.80
2020,08,09,20,30,18.80
